Voltar ao catálogo

STARLINK-5114

AtivoComunicaçõesVLEO
NORAD 54003·PAYLOAD·🇺🇸 United States

Lançado Oct 5, 2022 de Vandenberg Space Force Base

Loading…

Próximas Passagens (próximas 24 horas)

TLE

AtualizadoSource: CelesTrak SupGP

Época: Sep 14, 2026, 21:00 UTC

1 54003C 22125AR  26257.87548611  .00011893  00000+0  74576-3 0  2576
2 54003  53.1581  84.0052 0001386  88.8266 355.6005 15.08832460    14

Acompanhe STARLINK-5114 em tempo real com AllMySat

Download on the App Store